Theta_e
314 314 314 313 312 312 313 313 312 311 312 312 312 312 311 311 310 310 310 309 308 308 308 307 307 306 304 302 301 301 300 300 299 298 298 298 298 298 298 298 297 297 297 297 296 296 295 295 295 296 295 294 294 293 293 293 292 291 291 291 291 290 289 289 289 289 289 288 289
315 314 313 310 310 312 313 313 312 311 312 313 313 312 312 312 311 311 311 310 310 310 309 309 308 306 305 303 302 301 301 300 299 299 298 298 298 298 298 298 298 297 297 297 297 297 297 296 296 296 296 295 294 293 293 292 292 291 291 291 291 290 290 290 290 290 289 289 289
316 315 314 313 313 313 314 314 313 313 312 313 313 313 313 312 312 312 312 312 311 311 310 310 309 307 305 304 303 302 302 301 300 299 299 299 298 298 298 298 298 297 297 297 297 297 298 296 297 297 297 297 295 294 293 291 291 291 292 291 291 291 291 292 290 290 289 290 289
317 316 315 314 314 314 314 314 314 313 313 313 313 313 313 313 313 313 313 312 311 311 311 311 310 309 307 305 304 303 302 301 300 300 299 299 299 299 298 298 298 298 297 297 297 297 297 297 297 298 297 296 295 295 295 293 292 292 293 292 292 292 292 293 291 291 290 290 289
317 317 317 316 314 314 314 314 314 314 314 314 314 313 314 314 313 313 312 312 312 312 312 311 311 310 308 306 304 303 302 301 299 299 300 300 299 299 299 298 298 298 297 297 297 297 297 296 298 298 297 296 296 296 295 294 293 293 293 293 293 293 293 292 292 291 291 291 290
317 318 317 317 316 315 315 315 315 314 314 315 314 313 314 314 314 313 313 313 313 312 311 309 309 309 308 306 305 304 303 302 300 300 300 300 300 299 299 298 298 298 298 297 297 297 297 296 298 298 298 297 296 295 294 293 293 293 293 293 293 293 293 293 292 292 291 291 291
318 318 318 318 317 316 316 315 315 315 315 315 314 313 313 314 314 313 312 313 313 312 310 308 308 308 308 307 305 304 303 302 301 301 301 300 300 300 299 299 299 299 299 299 299 298 298 298 298 298 297 296 296 295 294 293 294 294 294 294 294 294 293 293 292 292 292 292 292
319 318 318 318 317 317 316 315 315 315 315 315 314 314 313 313 313 313 313 312 312 311 311 310 309 309 308 307 306 305 303 302 302 302 301 301 300 300 300 300 300 300 300 301 301 300 299 299 299 299 299 298 297 296 294 294 295 295 296 295 295 295 294 293 293 293 293 292 292
319 318 318 318 318 318 317 316 316 315 315 315 315 314 314 313 313 313 313 312 312 311 311 310 309 308 308 307 306 305 304 303 302 302 302 301 301 301 301 302 301 302 302 303 303 301 300 300 300 300 300 300 299 298 296 295 296 296 296 296 296 295 294 293 293 293 293 293 292
319 319 318 318 318 318 317 317 316 315 315 315 315 314 313 311 312 313 313 313 311 311 310 311 309 308 307 306 306 305 304 304 303 302 302 302 302 302 303 304 304 305 305 304 305 304 303 302 301 301 301 300 300 299 297 296 296 296 296 296 296 295 294 293 294 294 294 293 293
319 319 319 318 318 318 317 317 316 315 315 315 315 314 313 311 312 312 313 313 312 311 310 311 309 308 307 307 306 306 305 304 304 303 302 302 303 304 305 306 307 306 306 305 306 306 306 305 303 302 301 301 301 300 298 297 296 296 296 296 296 296 295 294 295 295 295 294 294
319 319 318 318 318 317 317 317 316 316 316 315 315 315 314 314 313 313 312 312 312 311 311 310 309 308 308 307 307 306 305 304 304 303 303 303 304 306 307 307 308 307 306 306 307 307 307 306 305 304 302 301 301 301 299 297 297 296 296 296 297 296 296 295 295 296 296 295 295
318 318 318 318 318 317 317 317 317 317 316 315 315 315 315 315 314 313 312 312 312 312 312 310 309 308 308 308 307 306 305 305 304 303 303 304 305 307 309 309 308 307 307 307 307 307 307 307 307 305 303 301 301 301 301 299 298 297 297 296 296 296 296 296 296 297 297 297 296
319 319 319 318 318 317 317 317 317 317 316 316 316 316 316 315 314 313 313 313 312 312 312 311 309 309 308 308 307 306 305 305 304 303 303 304 306 308 309 310 308 307 307 307 308 308 308 308 307 306 304 302 301 301 301 300 299 298 297 297 297 297 297 297 297 297 297 297 297
318 318 318 318 318 317 317 317 317 317 317 316 316 316 316 316 315 313 313 313 313 313 313 312 311 309 308 307 307 306 305 305 304 304 303 304 305 307 309 309 308 307 307 308 308 309 309 308 307 306 304 302 302 302 301 300 300 299 298 298 298 298 299 299 298 298 298 299 299
318 318 318 318 318 318 317 317 318 317 317 317 317 317 316 316 316 314 313 313 313 313 313 312 312 311 309 307 307 306 306 305 305 304 304 304 305 307 308 309 308 308 307 308 309 309 309 308 307 305 304 303 302 302 301 301 300 299 299 299 298 299 300 299 299 299 300 300 301
318 318 318 318 318 318 318 318 318 318 318 318 317 317 317 316 316 315 313 313 314 314 313 313 312 312 311 308 307 307 306 306 305 305 305 305 306 307 309 309 309 309 309 308 309 309 309 307 306 304 303 302 302 302 302 301 300 300 299 299 299 299 300 300 300 300 301 302 302
318 318 319 318 318 318 318 318 319 318 318 318 318 317 317 317 316 316 314 313 314 314 313 313 313 313 312 310 309 308 307 306 306 305 305 305 306 307 309 310 309 309 309 309 309 309 308 306 305 304 303 302 302 302 302 301 301 300 300 300 300 300 300 300 301 302 303 303 303
318 319 318 318 318 318 318 318 318 319 319 318 318 318 318 317 317 316 316 315 314 314 314 314 313 313 312 311 310 309 308 307 307 306 305 306 307 307 309 310 310 310 310 310 310 309 308 306 304 303 303 302 302 302 302 302 301 301 300 300 300 300 300 301 302 303 304 304 304
318 318 319 319 319 319 319 318 319 319 319 319 319 318 318 318 317 317 317 317 316 315 314 314 314 313 313 312 311 310 309 308 307 307 306 306 307 308 309 310 311 310 310 310 309 308 307 306 305 303 302 302 301 301 301 301 301 301 300 300 300 300 300 302 303 304 305 305 304
319 319 319 319 319 319 319 319 319 319 319 320 319 319 319 318 318 317 317 317 316 316 315 314 314 313 313 312 311 310 309 309 308 307 306 307 308 309 310 310 310 310 310 309 308 307 307 306 305 304 303 302 301 301 301 301 301 301 300 300 300 300 301 302 303 304 304 304 303
319 319 319 319 319 319 320 320 320 320 320 320 320 320 319 319 319 318 317 317 317 316 315 314 314 313 313 312 312 311 310 309 308 307 307 308 309 310 311 310 310 309 309 308 308 308 308 308 306 305 303 302 301 301 300 301 301 301 301 300 300 301 301 303 303 304 303 303 303
319 319 319 319 319 318 318 319 320 320 320 320 320 320 320 320 319 319 318 318 316 316 315 315 314 314 314 313 313 312 311 310 309 308 308 310 311 312 312 312 311 310 310 310 310 310 309 308 307 305 304 303 302 301 301 302 302 302 302 301 301 301 301 302 303 303 303 302 302
319 319 319 319 319 319 319 320 320 320 320 320 320 320 320 320 320 319 319 318 317 316 316 315 315 315 314 314 314 313 312 310 309 309 309 311 312 313 313 312 312 312 312 311 310 308 307 307 307 306 305 304 303 302 302 303 303 302 302 301 301 301 301 302 302 302 301 301 301
319 319 319 319 320 320 320 320 320 320 320 320 321 321 321 320 320 320 319 318 317 316 316 315 315 315 315 314 314 313 312 311 310 309 310 311 312 313 312 312 311 312 311 309 305 302 302 302 304 305 305 305 303 302 302 302 302 302 301 301 301 301 301 301 301 301 301 301 300
318 318 319 319 319 320 320 320 320 320 320 320 320 321 320 320 320 319 318 318 317 316 316 315 315 314 313 314 313 313 312 311 311 311 310 311 312 312 312 311 311 310 308 305 301 299 298 299 300 302 304 306 304 303 302 301 301 302 302 301 301 301 301 301 300 300 299 299 299
318 318 319 319 319 319 320 320 320 320 320 320 320 320 320 320 320 319 318 317 317 316 315 315 315 312 311 313 313 312 312 311 311 311 311 311 311 311 311 310 309 308 305 301 298 297 297 298 298 299 301 305 304 303 302 301 301 301 301 301 301 301 301 301 300 299 299 298 297
318 319 319 319 319 319 319 319 319 319 319 319 319 319 319 319 319 318 318 317 316 316 315 315 314 314 313 314 313 312 312 311 311 311 311 311 311 310 309 309 308 305 302 298 296 296 296 297 298 298 299 301 304 303 302 302 301 301 302 302 301 301 301 300 300 300 299 298 296
318 318 319 319 319 319 319 319 319 319 318 318 318 318 317 317 317 317 317 317 316 316 315 315 314 314 314 313 312 312 311 311 311 311 311 310 309 308 307 306 305 302 298 295 295 295 296 297 297 297 297 298 302 304 303 302 302 302 302 302 302 302 301 300 300 300 299 297 295
317 318 318 318 318 319 319 318 318 318 318 318 318 317 317 316 316 316 316 316 316 316 316 315 314 313 313 313 312 311 311 311 311 310 309 309 308 306 305 303 303 301 297 294 294 295 295 296 297 297 296 296 300 303 304 303 302 302 302 302 302 301 301 300 299 299 298 297 294
317 317 318 318 318 318 318 319 319 318 318 318 317 317 316 316 316 316 316 316 316 314 313 313 313 313 313 313 312 311 310 310 309 309 308 308 305 304 304 303 303 300 296 294 295 295 296 296 296 296 296 296 299 302 304 304 303 303 302 301 301 300 300 300 299 298 297 295 293
316 317 317 318 318 318 318 318 318 318 317 317 317 316 316 316 316 315 316 315 314 313 312 312 313 313 312 311 310 310 309 308 307 308 308 308 306 304 303 303 302 299 295 294 295 296 296 296 296 296 295 295 297 301 304 305 305 303 302 301 300 300 299 299 298 297 295 293 292
316 316 317 317 317 318 318 318 318 317 317 316 316 315 315 316 315 315 314 314 313 313 313 312 312 312 311 310 309 308 307 306 305 304 305 307 307 306 305 305 303 299 294 294 295 296 295 295 295 294 294 293 297 301 304 305 305 304 302 300 298 297 296 296 295 294 293 293 293
315 316 316 317 317 317 318 317 317 316 315 315 315 315 315 315 315 314 313 312 312 312 312 312 312 311 311 309 307 306 305 303 303 303 305 307 309 309 308 306 302 297 293 293 294 294 294 294 294 294 293 292 297 301 303 303 303 302 299 295 293 292 292 292 292 292 292 292 293
315 315 316 316 317 317 317 317 316 315 314 313 313 313 314 314 314 313 311 307 307 308 309 309 309 309 308 307 306 305 304 302 302 302 303 307 309 309 307 303 296 292 291 291 292 293 294 294 294 294 294 294 298 301 302 302 300 297 294 292 290 289 289 289 290 290 291 292 292
314 315 315 315 316 316 316 316 315 313 312 312 312 312 312 313 313 311 307 303 305 306 307 307 307 307 306 305 304 303 302 301 300 300 301 304 306 306 302 296 292 290 290 290 291 292 293 294 294 294 295 297 300 301 300 299 295 292 290 289 288 288 288 288 288 288 289 291 291
313 314 315 315 315 315 315 315 313 312 312 311 312 311 311 311 310 307 305 304 306 305 304 304 306 306 305 304 301 299 299 299 298 298 299 300 302 300 296 291 289 288 288 290 290 291 292 293 294 294 296 299 300 300 298 294 291 289 288 287 287 287 287 287 287 287 288 288 288
313 313 314 314 314 314 314 314 313 312 312 312 311 311 310 310 307 305 303 304 306 305 304 303 304 304 303 300 298 296 295 295 296 296 297 296 296 294 292 288 288 288 288 289 290 291 292 293 294 295 297 299 300 298 294 291 289 288 287 287 287 287 287 287 286 286 286 286 286
311 312 313 313 313 313 313 313 312 312 312 311 310 310 309 308 305 304 303 304 307 306 304 303 302 301 300 297 295 294 293 292 292 292 292 291 290 289 288 287 287 288 288 289 290 291 291 293 294 295 296 297 297 295 292 290 288 287 287 286 286 286 286 286 286 285 285 285 286
310 311 312 312 312 312 312 311 311 311 311 310 309 308 307 305 303 302 302 304 306 306 305 302 300 299 297 295 294 293 290 288 288 288 288 288 287 287 287 286 287 287 288 289 290 291 291 292 294 294 295 295 294 293 291 289 287 286 286 285 285 285 284 284 284 284 284 284 285
309 309 310 310 311 311 311 311 309 309 308 308 308 306 304 301 301 301 302 304 305 306 305 302 299 297 294 292 291 289 287 285 285 285 285 285 285 286 286 285 286 286 287 289 290 291 291 292 293 293 293 292 292 291 290 288 287 285 285 284 284 283 283 283 283 283 283 283 283
Wind_Speed
8 8 7 7 7 7 7 6 6 5 6 6 7 7 7 7 8 7 7 7 7 7 7 7 7 6 6 7 9 10 10 11 11 10 10 11 11 10 10 9 9 9 9 8 8 7 7 7 6 5 4 4 4 5 4 4 5 5 5 5 5 5 5 7 7 7 7 6 5
9 9 8 7 7 6 6 6 6 6 6 6 7 7 7 7 8 8 8 8 7 7 7 6 7 7 7 9 9 10 10 11 11 11 11 11 11 11 10 9 9 9 9 9 8 7 7 7 6 5 5 4 4 4 5 4 5 6 6 7 6 5 5 6 7 7 7 6 5
10 10 9 8 8 8 7 7 7 8 8 7 7 7 7 7 7 7 8 8 8 8 7 6 7 8 9 9 9 9 10 10 11 11 11 11 11 10 10 9 9 9 9 8 8 7 7 7 6 6 5 5 5 5 5 4 5 6 7 7 6 5 5 5 6 6 6 5 5
11 11 10 10 11 11 10 9 9 9 9 8 7 7 7 7 7 7 7 7 7 8 8 8 8 8 8 9 9 9 10 10 11 11 11 11 11 11 10 10 9 9 8 8 7 7 7 6 6 5 5 5 6 6 6 5 5 5 6 6 5 5 5 5 5 5 5 5 5
12 12 12 11 12 12 11 10 10 10 9 8 7 7 7 7 7 7 7 7 8 8 9 9 8 8 8 8 9 10 10 10 10 10 11 11 11 10 10 10 9 9 8 7 7 7 6 6 5 5 5 5 5 5 5 5 6 5 5 4 4 5 5 5 4 4 4 4 4
13 13 13 12 12 12 11 10 11 10 9 8 8 9 9 8 8 8 8 9 9 9 9 9 8 7 7 8 9 10 10 10 10 10 11 11 10 10 10 9 9 8 7 7 7 7 6 6 5 4 5 4 5 4 4 5 6 5 5 4 4 4 5 5 5 4 4 5 5
14 14 13 13 13 12 11 11 11 10 9 9 10 11 12 11 11 11 11 10 9 8 7 7 7 7 8 8 9 9 9 10 10 10 11 10 10 10 10 9 9 8 7 7 7 6 6 6 5 4 4 4 4 4 4 5 6 6 6 6 5 5 5 6 5 5 5 7 8
14 14 14 14 13 13 13 12 11 10 10 10 11 13 14 13 13 12 11 10 8 7 7 6 8 9 9 9 9 9 10 10 10 10 10 10 9 9 9 9 9 8 7 6 6 6 5 5 4 5 5 4 4 4 5 6 7 7 7 7 6 5 5 5 5 5 6 8 8
13 14 14 14 14 13 13 13 12 12 12 12 13 14 14 13 13 12 11 10 9 7 7 7 8 9 9 9 9 10 10 10 10 10 9 9 9 9 8 8 8 7 6 6 6 6 6 4 4 5 5 5 5 5 5 7 8 8 8 7 6 5 5 5 5 6 6 7 7
14 14 14 14 14 14 13 13 13 13 14 14 15 14 13 12 12 12 11 9 8 7 7 8 8 8 9 10 10 10 10 9 10 10 10 9 9 9 8 7 7 7 7 7 7 8 7 5 5 6 6 5 7 7 7 8 9 9 9 6 6 6 6 5 6 7 7 7 7
15 15 14 13 14 14 13 13 13 13 14 14 15 14 13 12 12 11 10 8 7 8 9 8 8 8 9 9 9 9 9 9 9 9 10 10 10 9 9 8 8 9 9 9 9 8 7 6 6 8 9 8 8 8 8 9 10 10 9 6 7 7 8 7 7 7 7 7 7
16 15 14 13 13 13 13 13 13 13 14 15 15 15 14 13 13 11 10 9 10 10 9 8 8 9 9 9 9 9 9 9 9 10 10 11 10 10 10 10 10 11 11 11 9 8 7 8 10 12 13 13 10 9 9 10 10 10 10 8 8 8 9 9 8 7 6 6 7
17 16 15 14 13 13 13 13 13 13 14 15 15 15 14 13 13 12 11 11 12 11 9 8 8 9 9 9 9 9 9 9 10 10 10 10 10 10 11 11 12 12 13 12 10 9 9 11 13 16 17 16 13 11 10 11 11 11 10 10 9 10 10 10 9 8 7 7 6
17 16 15 14 14 13 13 13 13 13 14 15 15 15 14 13 13 12 11 12 12 11 10 9 8 8 9 9 9 9 10 9 10 10 10 11 11 11 12 13 14 14 13 11 11 11 12 13 16 17 18 18 15 14 13 12 12 12 11 11 11 11 11 10 10 9 8 8 7
17 17 16 15 14 14 13 14 13 13 14 15 15 14 13 13 12 12 11 12 12 11 10 9 9 9 9 10 10 10 10 10 11 11 12 12 13 13 13 14 14 14 13 12 11 12 14 15 17 18 18 17 16 15 15 14 14 13 12 12 12 12 11 11 11 10 10 10 10
17 17 17 16 15 15 14 14 13 13 14 15 14 14 13 12 12 11 11 12 11 11 10 11 10 10 9 10 10 10 10 11 11 12 13 13 14 14 14 14 14 14 13 13 13 13 14 16 16 16 16 15 15 15 15 15 14 14 13 13 13 13 12 11 12 12 12 12 12
18 18 17 17 17 17 16 15 14 13 14 15 14 13 12 12 11 11 11 12 11 11 11 12 12 11 10 10 10 10 10 11 12 13 14 15 15 15 14 14 14 14 14 14 14 14 15 14 14 14 14 14 14 14 14 14 14 14 14 14 14 14 13 12 13 13 13 13 13
18 18 18 18 18 18 18 17 16 15 15 15 14 13 12 11 11 11 11 11 11 12 13 14 13 13 12 12 11 10 11 11 12 13 14 14 15 14 13 13 13 13 14 14 15 15 14 13 13 13 13 13 13 13 13 14 13 13 13 13 14 14 14 14 14 13 13 13 13
19 19 18 18 19 19 19 18 17 16 15 14 13 12 11 11 12 12 12 12 13 14 14 15 14 14 13 13 12 11 11 12 13 14 14 13 12 12 11 11 12 13 14 14 14 14 13 12 12 12 12 12 12 12 12 13 13 13 13 13 13 14 15 14 14 13 12 12 12
20 19 18 18 18 18 18 17 16 15 14 13 12 12 12 12 12 13 14 14 14 15 15 15 15 14 14 13 13 13 12 12 13 13 13 12 11 10 11 12 13 13 13 13 12 12 11 11 12 12 12 13 12 13 13 13 12 12 12 12 13 13 14 14 13 12 11 11 11
19 18 17 17 16 16 15 15 14 14 13 13 13 13 13 13 14 15 16 17 16 16 16 16 15 15 14 13 14 14 14 12 12 12 12 11 11 10 10 11 12 12 11 11 10 10 11 11 12 12 12 13 13 13 13 12 12 12 12 11 12 13 13 13 12 11 11 11 11
19 17 16 14 14 13 13 13 12 13 13 14 14 15 15 16 16 18 18 18 17 16 16 16 15 14 14 14 14 15 14 11 11 12 12 11 10 10 10 11 11 11 10 10 10 10 11 13 13 13 13 12 13 13 12 12 11 11 11 11 12 13 13 13 12 11 11 11 11
17 15 13 12 12 12 12 12 12 13 14 16 17 18 19 19 20 20 20 18 17 16 16 15 14 13 14 14 15 14 13 12 11 12 12 12 12 12 12 12 12 12 12 11 11 11 12 13 14 14 13 12 13 13 13 12 11 11 12 12 13 13 14 13 12 11 11 12 12
15 13 12 11 12 13 13 14 15 17 18 20 21 22 22 23 23 22 20 18 17 16 16 14 13 13 14 14 15 14 14 13 13 14 14 13 13 13 13 12 13 13 13 12 11 12 12 12 12 12 12 12 12 12 12 12 12 12 13 13 14 14 13 12 12 11 11 12 11
16 14 13 12 13 15 16 17 18 20 23 24 25 25 25 25 24 21 19 17 16 16 16 14 13 13 13 13 14 14 14 15 15 15 15 14 13 12 12 12 12 13 12 11 12 13 13 11 10 9 9 9 10 10 10 11 11 12 13 13 14 14 13 12 11 11 11 11 10
16 16 16 16 16 17 18 19 21 24 26 26 26 26 25 24 21 18 17 16 15 15 15 14 13 13 12 12 13 13 14 14 15 16 16 14 13 12 11 11 11 10 10 10 12 14 15 14 11 9 8 8 8 8 8 9 9 10 12 13 13 13 12 11 11 10 10 9 9
16 17 18 18 18 19 20 21 23 25 26 26 24 23 21 18 16 15 15 15 14 13 13 12 12 12 11 11 13 14 14 14 14 15 15 14 13 12 11 10 10 9 8 9 12 14 15 15 13 11 9 8 8 8 7 7 8 9 11 13 12 12 12 11 11 10 9 8 9
17 18 19 20 20 21 22 22 23 23 24 23 20 17 15 13 13 14 14 15 14 12 11 11 10 9 9 9 12 14 15 14 13 13 13 12 12 12 11 10 9 8 8 9 11 13 15 15 14 13 11 9 8 7 7 7 8 9 10 10 11 11 11 10 9 9 8 8 8
18 19 20 21 23 23 24 23 23 22 21 18 14 12 11 11 12 13 14 14 14 13 11 9 8 7 7 9 11 12 13 13 12 11 10 10 10 9 9 8 8 7 8 9 11 13 14 15 15 14 13 11 8 7 8 9 9 9 9 9 9 9 9 9 8 7 7 8 8
18 19 21 23 24 24 24 24 24 22 19 13 10 10 11 11 12 13 14 14 14 13 11 8 7 8 9 11 10 10 11 11 10 9 9 8 7 7 6 6 6 7 8 11 12 13 14 15 16 16 15 13 10 9 9 9 9 8 8 8 8 8 8 8 8 8 8 8 7
19 20 21 22 23 24 25 25 24 21 17 12 11 11 12 12 13 14 14 13 12 9 8 8 9 10 11 11 9 9 9 9 8 8 8 7 6 5 4 4 5 6 8 12 12 13 13 14 15 15 15 14 11 9 8 7 7 6 6 7 7 7 8 7 8 9 9 8 7
20 20 21 21 23 24 25 25 24 20 16 13 12 13 13 14 14 12 11 9 8 7 7 8 10 11 10 9 9 9 9 9 9 9 8 8 6 4 4 4 4 5 8 12 12 13 13 14 14 15 15 15 11 8 6 5 5 5 5 6 6 7 7 7 8 9 9 8 8
20 20 21 21 23 24 24 24 23 19 16 13 13 14 14 14 12 10 8 6 6 7 8 9 11 11 10 9 9 9 8 9 9 9 9 9 7 6 4 4 4 5 7 10 11 12 13 14 14 14 14 14 9 6 4 4 4 4 3 3 4 5 6 7 7 8 8 8 8
19 20 21 22 23 23 24 23 21 18 15 13 14 14 14 13 11 9 7 5 5 6 7 8 9 9 9 8 7 7 6 6 7 7 8 9 8 6 4 3 3 4 6 8 9 11 13 14 14 13 13 11 7 5 4 4 3 3 2 1 1 1 1 3 4 6 7 8 8
19 20 21 22 22 23 22 22 19 16 14 13 13 13 13 12 11 8 5 4 4 4 5 5 5 6 6 5 5 5 5 5 5 6 6 7 7 6 4 3 3 3 3 5 7 10 12 13 13 13 12 9 6 4 4 3 2 2 3 5 5 5 4 4 3 4 5 7 8
18 20 21 21 22 22 21 20 17 15 13 13 13 12 11 9 8 6 4 5 5 5 4 4 5 5 5 5 4 5 5 6 5 5 5 5 6 5 4 3 2 2 1 2 6 9 11 13 13 13 11 7 5 3 3 3 3 5 6 7 6 6 6 6 6 5 5 5 7
18 19 20 20 21 20 19 18 15 14 14 14 13 11 9 8 5 5 5 6 6 6 5 5 6 6 6 6 6 5 5 5 5 5 5 5 6 7 7 5 2 1 1 2 5 8 11 12 13 12 10 6 4 3 4 5 5 6 7 8 8 7 7 7 7 7 8 8 8
17 18 18 19 19 19 18 16 15 15 15 14 11 9 7 6 5 6 6 6 6 6 6 5 6 6 7 8 8 7 7 6 6 6 6 6 6 7 8 6 3 1 1 1 4 6 9 11 12 11 9 5 5 5 6 6 6 7 7 8 8 8 7 7 7 8 9 11 12
16 16 17 17 17 17 16 15 15 15 14 11 9 7 6 7 6 6 6 6 6 6 6 6 6 7 7 8 8 8 9 9 9 8 8 8 8 8 8 7 4 3 2 2 1 4 7 9 10 10 9 6 6 7 7 7 8 8 8 8 8 8 8 7 7 8 10 13 15
14 14 15 15 15 15 14 14 13 12 10 8 7 7 7 7 7 6 6 5 6 6 7 7 7 7 7 7 9 10 10 11 10 10 9 9 9 9 8 7 6 4 4 4 3 3 5 7 9 10 9 8 8 8 8 8 9 8 8 7 7 7 7 7 7 7 8 11 13
10 11 12 13 13 13 12 12 10 8 6 6 7 6 6 7 7 6 5 5 6 6 7 7 9 9 9 8 9 10 11 11 10 9 9 9 9 9 8 7 7 6 5 5 6 6 7 8 10 11 11 9 9 9 9 9 9 9 9 8 7 7 7 7 7 7 7 8 8
Wind_Direction
196 194 192 191 193 196 199 204 201 197 195 196 198 200 201 202 206 207 206 204 208 209 211 212 211 209 205 198 193 194 196 199 200 201 202 203 204 203 201 199 197 195 194 195 190 188 189 191 194 197 199 196 198 201 201 193 183 182 187 191 193 186 179 180 188 190 191 194 194
201 198 195 191 193 196 200 204 203 201 199 200 201 201 202 203 207 208 208 207 209 210 211 213 211 208 203 198 195 194 195 197 199 200 202 205 205 204 202 200 199 198 196 195 192 191 192 192 195 200 204 201 196 199 200 194 180 180 186 193 192 184 178 185 193 193 191 193 193
204 201 198 195 195 198 202 205 205 204 203 203 203 203 204 205 209 210 211 210 210 210 211 213 211 206 202 198 196 195 196 197 198 199 202 206 206 205 203 202 201 200 198 196 195 195 195 192 197 204 208 205 199 199 200 193 180 181 188 195 191 184 183 196 195 191 188 193 191
205 204 202 200 199 200 203 206 205 205 204 204 205 207 208 209 211 213 214 213 211 210 211 211 210 206 201 198 197 197 198 197 196 198 202 206 206 205 204 202 201 201 200 196 197 197 197 193 200 208 213 209 204 204 202 190 183 187 193 196 188 185 190 199 192 187 185 191 191
207 207 206 205 203 203 205 207 206 206 206 205 206 209 212 213 213 215 216 214 213 213 212 210 209 207 202 197 196 197 198 197 196 198 202 205 205 204 203 201 201 200 198 193 193 194 194 191 202 213 218 216 212 211 204 181 183 190 197 193 190 189 191 194 188 183 182 187 190
209 210 210 209 206 205 207 209 208 207 207 206 208 211 213 215 213 213 214 216 216 214 211 208 209 207 203 196 195 196 197 197 198 200 202 204 204 202 201 201 201 198 194 188 187 187 188 189 203 214 220 220 221 217 202 175 181 190 197 196 195 193 190 191 184 179 178 181 185
210 210 211 212 208 207 208 209 209 208 208 210 211 213 215 216 215 214 215 217 217 214 210 206 208 208 204 198 196 196 198 199 200 201 201 202 201 199 198 199 198 195 191 185 183 184 187 189 203 216 220 218 220 212 197 178 184 192 199 202 200 193 188 190 181 177 177 181 183
212 212 212 213 211 209 209 209 209 209 211 213 215 216 216 217 217 217 217 217 218 215 210 208 208 207 206 201 199 198 198 199 201 202 201 200 198 197 196 196 194 191 187 181 181 186 191 194 210 220 224 219 217 208 195 185 190 198 204 208 202 195 189 186 177 176 178 179 182
214 213 213 213 213 212 210 209 209 210 213 217 219 219 218 218 219 219 219 218 218 215 211 210 208 206 205 204 202 200 199 200 201 201 200 198 194 193 192 191 190 189 188 184 185 189 195 206 223 231 231 225 221 210 197 190 197 203 208 210 203 194 187 180 174 173 175 176 181
215 214 213 213 214 213 211 210 210 212 215 219 221 221 220 219 220 221 221 220 218 216 213 213 207 204 204 206 205 203 202 201 200 200 198 196 193 193 194 192 194 200 204 199 193 192 194 205 231 242 242 235 228 217 204 195 201 207 210 210 198 189 184 179 172 171 173 176 182
216 215 213 213 213 212 211 211 213 215 217 221 223 223 222 220 220 221 222 222 220 218 217 213 205 203 204 207 208 206 204 202 200 198 197 194 194 198 204 207 209 211 211 206 199 194 191 196 225 241 245 241 234 224 213 203 206 208 210 207 196 189 184 181 175 174 175 178 182
217 216 215 214 213 212 211 212 215 217 219 222 224 224 223 222 221 220 220 220 221 222 219 212 204 203 204 208 208 207 205 202 200 198 196 195 197 203 212 219 219 216 212 207 202 196 192 196 213 227 235 235 232 226 218 209 209 210 209 203 196 192 188 183 178 176 175 174 176
217 217 216 215 213 211 211 213 216 218 220 222 223 224 224 224 221 218 217 218 221 223 221 213 205 204 206 208 207 206 204 203 200 198 196 196 199 206 215 222 220 216 212 208 202 197 197 202 212 220 226 227 223 219 216 211 210 210 208 201 198 196 192 184 179 175 171 166 168
216 216 216 215 212 211 212 214 217 219 221 222 223 223 224 224 221 218 216 217 220 222 220 214 209 208 208 207 205 204 203 202 200 198 197 197 199 206 213 219 218 215 212 209 204 203 205 210 216 220 223 223 218 214 211 209 209 208 206 200 198 197 195 186 177 172 168 166 174
215 215 216 215 213 212 213 214 217 220 221 223 223 222 222 223 221 217 216 218 219 219 219 216 214 212 209 206 204 203 201 201 199 199 198 199 200 204 209 214 215 214 213 212 210 211 214 219 222 222 222 221 217 212 208 206 206 204 202 198 197 197 195 188 178 173 172 175 188
214 214 214 214 213 213 214 215 217 219 221 222 222 221 221 222 220 217 216 217 218 218 217 217 216 214 211 207 204 202 201 201 201 201 201 201 202 204 208 214 216 217 217 218 218 220 222 224 224 223 222 221 218 213 209 206 203 200 198 194 194 195 195 190 182 179 181 185 197
215 214 213 213 213 214 215 216 218 220 221 222 221 219 219 220 220 218 217 216 217 217 217 217 216 215 212 208 205 202 202 203 204 204 204 204 205 207 212 217 221 223 223 223 225 228 228 225 222 221 222 221 218 214 210 205 203 200 197 193 192 193 194 193 188 187 189 194 203
215 214 213 213 214 215 216 217 219 220 222 222 221 219 218 219 220 220 219 217 217 217 218 218 217 215 213 210 207 204 204 206 208 208 208 208 208 211 215 223 227 228 228 228 233 234 232 225 220 219 219 220 218 214 210 206 204 202 200 196 193 193 195 196 194 193 194 200 208
216 215 214 213 214 215 217 218 220 222 223 224 223 222 220 218 219 220 221 220 218 217 218 218 217 216 214 212 209 208 207 208 210 211 210 209 210 214 221 230 233 233 233 235 238 238 234 226 220 218 217 218 216 213 210 207 205 203 201 199 197 198 199 200 199 199 200 203 210
216 214 213 213 214 215 217 219 221 224 226 227 227 226 223 220 219 219 221 222 219 217 217 217 217 216 215 212 211 210 211 211 211 211 209 206 209 217 228 237 238 237 236 236 236 235 234 229 224 219 217 216 214 212 210 208 206 204 202 201 201 203 204 205 205 206 206 207 210
215 214 212 212 212 214 216 219 221 224 227 229 229 228 226 223 221 220 221 222 219 217 215 216 216 215 213 211 212 212 213 212 209 207 204 200 206 219 231 238 238 238 236 232 229 230 232 232 228 223 219 215 213 211 209 207 206 205 204 203 203 205 206 208 210 210 210 209 211
215 212 210 207 207 209 212 216 219 223 226 228 229 228 228 226 224 222 221 221 219 216 215 215 213 212 210 209 212 213 213 211 206 202 198 196 206 218 229 236 238 236 232 226 226 229 233 235 232 227 222 217 214 210 207 204 205 207 207 205 205 206 208 210 211 210 210 209 210
212 208 203 198 196 198 202 209 215 220 223 225 226 227 227 227 226 224 223 221 219 217 215 213 209 207 207 210 213 214 213 210 205 201 199 199 207 215 220 224 228 231 233 232 232 232 233 234 232 228 224 220 217 212 208 204 204 206 207 206 207 208 210 211 210 210 210 210 210
206 201 196 191 187 189 193 201 210 216 220 221 222 222 224 225 225 224 222 220 219 217 215 211 206 205 207 211 214 214 213 210 207 205 204 204 208 212 216 218 222 227 231 233 232 229 228 227 227 226 224 223 220 216 212 208 205 203 203 204 207 210 212 212 211 211 211 211 211
201 196 192 190 189 191 195 201 209 216 219 220 219 219 221 223 223 222 221 219 218 216 214 211 206 204 206 210 214 215 214 212 210 209 209 209 210 213 216 220 223 226 228 229 226 222 218 214 216 221 226 228 226 223 219 213 206 201 199 201 206 209 212 213 212 211 211 212 213
198 193 192 193 195 197 199 203 212 219 222 222 220 220 221 223 222 221 220 220 218 216 213 210 207 205 205 208 211 214 215 216 214 213 212 211 212 213 216 221 224 226 225 222 218 213 209 205 207 214 226 235 233 228 222 215 205 200 200 203 206 209 210 213 213 213 214 215 218
196 193 193 194 198 202 206 209 214 220 224 224 222 223 224 225 223 221 220 220 218 215 212 210 208 206 204 205 209 212 214 217 217 216 215 213 214 215 217 222 225 225 222 216 209 203 200 199 201 205 215 229 230 226 220 214 207 204 205 207 208 209 210 212 213 214 216 219 222
199 196 195 196 199 205 211 216 220 224 227 228 226 225 225 224 222 220 219 219 216 213 210 209 208 205 203 205 208 210 212 214 216 218 218 216 216 216 217 219 220 219 214 205 198 192 189 189 190 192 197 208 214 215 213 213 212 211 210 210 211 211 212 213 213 214 217 221 223
200 199 199 200 203 207 212 218 224 229 231 231 230 229 227 223 220 219 219 218 214 212 209 208 204 201 202 207 210 210 210 211 213 214 216 217 217 215 212 210 210 205 196 187 184 180 178 177 179 181 184 189 196 203 208 211 211 210 210 212 213 213 213 213 214 216 218 221 220
201 201 202 204 205 208 211 217 223 228 231 231 231 231 231 226 222 220 219 217 214 212 209 203 198 199 203 207 207 207 207 208 207 206 206 208 210 209 205 199 198 190 178 171 171 170 170 171 175 178 180 180 187 199 207 209 206 205 206 211 212 211 211 212 214 217 218 218 209
202 202 203 204 207 210 213 217 222 225 226 224 225 227 229 228 225 222 220 217 215 212 205 195 194 198 202 204 201 201 202 203 199 195 192 192 193 191 185 180 179 171 166 165 166 167 169 173 178 180 180 180 188 198 204 202 199 200 203 208 209 209 210 213 215 217 216 209 190
202 202 203 205 208 211 215 218 221 222 221 217 218 221 224 226 225 223 219 216 214 209 202 195 195 197 199 198 196 197 197 196 191 187 182 176 169 159 150 151 155 158 162 166 166 168 171 176 180 182 183 183 189 194 199 197 198 202 208 212 213 213 214 216 219 216 210 196 179
202 203 204 206 210 213 216 218 220 220 218 214 215 217 221 224 225 223 219 213 209 205 201 197 196 196 195 192 192 192 192 189 185 179 172 165 157 150 144 146 144 148 156 165 166 168 172 176 179 181 182 182 185 190 198 203 209 212 215 218 222 221 219 217 214 206 195 181 170
203 204 205 208 211 214 217 219 220 218 215 212 213 215 218 221 223 222 217 208 200 196 195 194 193 191 187 182 180 180 179 175 170 166 163 160 156 154 153 150 130 128 140 157 164 171 176 178 178 178 179 179 184 191 200 207 212 204 181 132 90 99 160 187 185 178 171 162 153
203 204 206 209 212 215 217 219 218 216 212 211 212 214 216 217 218 214 199 170 164 167 172 176 174 170 164 158 157 154 151 144 142 144 147 151 154 158 158 144 105 97 117 153 174 182 185 183 182 181 181 182 187 191 194 192 169 126 106 94 75 67 65 69 89 120 137 142 138
203 205 208 211 213 216 217 218 216 213 210 210 211 212 212 211 208 192 157 127 125 128 131 131 131 131 130 124 117 116 119 125 125 125 126 131 139 141 135 113 74 46 51 186 196 197 196 192 190 188 187 186 184 176 160 125 97 87 85 84 73 64 59 56 54 61 77 99 111
205 206 208 211 214 216 217 216 213 211 211 211 210 207 203 195 178 148 125 118 117 116 114 112 116 118 117 109 96 89 89 99 104 103 101 103 115 120 119 109 80 23 315 247 219 212 207 201 197 194 191 188 177 150 120 99 96 92 90 87 80 73 66 63 58 57 60 68 82
206 207 208 211 213 215 215 214 212 211 212 212 208 201 187 167 142 127 123 123 120 117 112 108 111 111 109 104 96 86 75 66 66 73 79 79 90 104 111 112 95 53 347 288 233 221 216 210 206 200 194 187 166 138 118 111 110 107 102 97 90 83 76 73 69 68 69 72 81
206 206 207 210 212 212 212 211 211 211 211 209 201 186 166 145 133 130 131 124 120 117 113 109 109 108 107 104 99 86 71 57 53 56 64 70 75 85 95 102 90 67 39 22 211 212 212 212 208 199 187 171 148 133 124 122 118 114 109 103 98 90 83 79 78 77 77 79 83
205 205 206 208 209 209 209 208 208 208 205 198 184 166 149 136 132 133 132 119 114 112 112 111 109 105 100 95 90 83 73 63 57 57 62 70 73 77 81 86 81 69 56 52 85 140 172 185 182 174 162 145 135 129 127 125 120 116 112 108 104 98 92 86 84 83 83 82 84
202 201 203 205 206 205 204 203 202 196 184 170 160 148 135 126 129 131 129 115 112 112 112 110 105 99 92 86 85 85 83 77 69 66 68 71 72 72 72 73 71 63 57 56 75 97 120 138 143 142 139 132 131 130 129 127 122 119 116 114 111 107 103 97 91 88 88 88 88